This demonstration page uses our WeatherBlox Daily Observations layout. Learn more.

Hourly Observations for December 4, 2019

Temp ( °F °C ) Dew Point ( °F °C ) Humidity (%) Winds ( mph kmh ) Pressure ( in mb ) Visibility ( mi km ) Precip ( " mm )
12:15 am 00:15 Clear 35 1.5 29 -1.5 81 81 W 8 13 30.08 1019 10 16.0934 0 0
12:35 am 00:35 Clear 34 0.9 29 -1.7 83 83 WSW 8 13 30.08 1018 10 16.0934 0 0
12:55 am 00:55 Clear 33 0.7 29 -1.6 85 85 WSW 8 13 30.08 1019 10 16.0934 0 0
1:15 am 01:15 Clear 33 0.6 29 -1.5 86 86 W 12 19 30.08 1019 10 16.0934 0 0
1:35 am 01:35 Clear 33 0.4 29 -1.7 86 86 W 9 15 30.08 1019 10 16.0934 0 0
1:55 am 01:55 Clear 33 0.4 29 -1.6 87 87 W 8 13 30.07 1018 10 16.0934 0 0
2:15 am 02:15 Clear 33 0.7 29 -1.8 84 84 W 9 15 30.07 1018 10 16.0934 0 0
2:35 am 02:35 Clear 34 1.2 29 -1.5 82 82 W 9 15 30.06 1018 10 16.0934 0 0
2:55 am 02:55 Clear 34 1.2 29 -1.5 82 82 W 12 19 30.06 1018 10 16.0934 0 0
3:15 am 03:15 Clear 34 1 29 -1.5 84 84 W 10 17 30.07 1018 10 16.0934 0 0
3:35 am 03:35 Clear 34 1.1 30 -1.3 84 84 W 10 17 30.07 1018 10 16.0934 0 0
3:55 am 03:55 Clear 34 1 30 -1.2 85 85 WNW 8 13 30.07 1018 10 16.0934 0 0
4:15 am 04:15 Clear 34 0.9 30 -1.2 86 86 W 8 13 30.07 1018 10 16.0934 0 0
4:35 am 04:35 Clear 34 1 30 -1 87 87 W 9 15 30.07 1018 10 16.0934 0 0
4:55 am 04:55 Clear 33 0.8 30 -1.3 86 86 WNW 7 11 30.06 1018 10 16.0934 0 0
5:15 am 05:15 Clear 33 0.4 29 -1.5 87 87 W 9 15 30.06 1018 10 16.0934 0 0
5:35 am 05:35 Clear 34 0.9 30 -1.2 86 86 WNW 8 13 30.06 1018 10 16.0934 0 0
5:55 am 05:55 Clear 33 0.5 29 -1.4 87 87 W 7 11 30.06 1018 10 16.0934 0 0
6:15 am 06:15 Clear 33 0.4 29 -1.6 87 87 W 7 11 30.06 1018 10 16.0934 0 0
6:35 am 06:35 Clear 31 -0.3 28 -2 88 88 WSW 3 6 30.08 1019 10 16.0934 0 0
6:55 am 06:55 Clear 31 -0.8 28 -2.5 88 88 WSW 5 7 30.09 1019 10 16.0934 0 0
7:15 am 07:15 Clear 30 -1.1 28 -2.5 90 90 W 10 17 30.11 1019 10 16.0934 0 0
7:35 am 07:35 Clear 30 -1.2 28 -2.5 91 91 W 9 15 30.11 1020 10 16.0934 0 0
7:55 am 07:55 Sunny 30 -1 28 -2.3 91 91 W 9 15 30.1 1019 10 16.0934 0 0
8:15 am 08:15 Sunny 31 -0.3 28 -2 88 88 W 8 13 30.11 1020 10 16.0934 0 0
8:35 am 08:35 Sunny 33 0.6 30 -1.3 87 87 WNW 7 11 30.09 1019 10 16.0934 0 0
8:55 am 08:55 Sunny 34 1 30 -1.1 86 86 W 8 13 30.09 1019 10 16.0934 0 0
9:15 am 09:15 Sunny 36 2 31 -0.7 83 83 W 7 11 30.09 1019 10 16.0934 0 0
9:35 am 09:35 Sunny 37 2.5 31 -0.5 81 81 WNW 7 11 30.08 1019 10 16.0934 0 0
9:55 am 09:55 Sunny 38 3.5 32 0 78 78 WNW 7 11 30.07 1018 10 16.0934 0 0
10:15 am 10:15 Sunny 40 4.2 32 0.2 75 75 NW 6 9 30.06 1018 10 16.0934 0 0
10:35 am 10:35 Sunny 41 4.8 33 0.3 73 73 NW 6 9 30.05 1018 10 16.0934 0 0
10:55 am 10:55 Sunny 41 5 32 0 70 70 NW 9 15 30.05 1018 10 16.0934 0 0
11:15 am 11:15 Sunny 41 5.1 33 0.5 72 72 NW 7 11 30.05 1018 10 16.0934 0 0
11:35 am 11:35 Sunny 41 5.1 34 0.9 75 75 WNW 6 9 30.05 1018 10 16.0934 0 0
11:55 am 11:55 Sunny 42 5.7 33 0.8 71 71 WNW 5 7 30.03 1017 10 16.0934 0 0
12:15 pm 12:15 Sunny 42 5.6 34 1.3 74 74 W 6 9 30.03 1017 10 16.0934 0 0
12:35 pm 12:35 Sunny 43 6.2 35 1.4 72 72 W 7 11 30.02 1016 10 16.0934 0 0
12:55 pm 12:55 Sunny 44 6.6 34 1.3 69 69 WNW 5 7 30.01 1016 10 16.0934 0 0
1:15 pm 13:15 Sunny 46 7.6 35 1.5 66 66 W 6 9 29.99 1016 10 16.0934 0 0
1:35 pm 13:35 Sunny 46 8 35 1.4 63 63 W 5 7 29.99 1016 10 16.0934 0 0
1:55 pm 13:55 Sunny 47 8.2 34 1.2 62 62 WSW 5 7 29.98 1015 10 16.0934 0 0
2:15 pm 14:15 Sunny 49 9.2 34 1 57 57 WSW 3 6 29.97 1015 10 16.0934 0 0
2:35 pm 14:35 Sunny 49 9.5 36 2 60 60 WSW 3 6 29.96 1014 10 16.0934 0 0
2:55 pm 14:55 Sunny 49 9.2 37 2.6 64 64 SW 3 6 29.95 1014 10 16.0934 0 0
3:15 pm 15:15 Sunny 49 9.6 35 1.8 59 59 SW 5 7 29.96 1014 10 16.0934 0 0
3:35 pm 15:35 Sunny 49 9.4 37 2.8 64 64 Calm 29.96 1014 10 16.0934 0 0
3:55 pm 15:55 Sunny 48 9.1 37 3 66 66 SW 5 7 29.95 1014 10 16.0934 0 0
4:15 pm 16:15 Sunny 46 7.8 37 2.7 70 70 SSW 5 7 29.95 1014 10 16.0934 0 0
4:35 pm 16:35 Sunny 44 6.8 37 2.5 74 74 SW 5 7 29.96 1015 10 16.0934 0 0
4:55 pm 16:55 Sunny 43 6.2 36 2 75 75 SW 3 6 29.97 1015 10 16.0934 0 0
5:15 pm 17:15 Clear 42 5.8 36 2.1 77 77 Calm 29.97 1015 10 16.0934 0 0
5:35 pm 17:35 Clear 38 3.4 33 0.7 83 83 Calm 29.99 1016 10 16.0934 0 0
5:55 pm 17:55 Clear 37 2.6 33 0.5 86 86 Calm 30 1016 10 16.0934 0 0
6:15 pm 18:15 Clear 38 3.2 35 1.4 88 88 Calm 29.99 1016 10 16.0934 0 0
6:35 pm 18:35 Clear 37 3 35 1.4 89 89 Calm 30 1016 10 16.0934 0 0
6:55 pm 18:55 Clear 35 1.7 33 0.6 93 93 Calm 30.01 1016 10 16.0934 0 0
7:15 pm 19:15 Clear 35 1.4 33 0.3 92 92 Calm 30.01 1016 10 16.0934 0 0
7:35 pm 19:35 Clear 36 2 34 0.9 93 93 SSE 5 7 30 1016 10 16.0934 0 0
7:50 pm 19:50 Clear 36 2.4 34 1 91 91 Calm 29.99 1016 10 16.0934 0 0
8:15 pm 20:15 Clear 35 1.8 34 1.1 95 95 Calm 30 1016 10 16.0934 0 0
8:35 pm 20:35 Clear 36 2 34 1 93 93 S 5 7 29.99 1015 10 16.0934 0 0
8:55 pm 20:55 Clear 35 1.4 33 0.5 94 94 S 5 7 29.99 1016 10 16.0934 0 0
9:15 pm 21:15 Clear 35 1.6 33 0.7 94 94 SSW 5 7 30 1016 10 16.0934 0 0
9:35 pm 21:35 Clear 33 0.6 32 0 96 96 Calm 30.01 1016 10 16.0934 0 0
9:55 pm 21:55 Clear 33 0.6 32 0 96 96 S 3 6 30.01 1016 10 16.0934 0 0
10:15 pm 22:15 Clear 35 1.6 33 0.5 93 93 SSW 6 9 29.99 1016 10 16.0934 0 0
10:35 pm 22:35 Clear 33 0.7 31 -0.6 91 91 SSW 3 6 30.01 1016 10 16.0934 0 0
10:55 pm 22:55 Clear 33 0.6 31 -0.3 94 94 Calm 30.01 1016 10 16.0934 0 0
11:15 pm 23:15 Clear 32 0 31 -0.5 96 96 Calm 30.01 1016 10 16.0934 0 0
11:35 pm 23:35 Clear 35 1.7 33 0.4 91 91 SSW 3 6 30 1016 10 16.0934 0 0
11:55 pm 23:55 Clear 32 -0.1 30 -1.2 92 92 S 3 6 30.02 1016 10 16.0934 0 0

Powered by AerisWeather